• In Kazakhstan
  • List of Countries
  • For 7 days
  • Water Temperature
  • Satellite Maps
  • Weather Map
  • News
  • Weather Widgets
  • user-avatar
    Login

    Hourly Weather Centawa

    Today, 20 February, Wednesday

    Time Temperature Precipitation Wind Pressure Humidity
    00:00 +4°C° 0 mm 3 mps 742 mmHg 86%
    01:00 +3°C° 0 mm 3 mps 742 mmHg 87%
    02:00 +3°C° 0 mm 3 mps 742 mmHg 86%
    03:00 +3°C° 0 mm 3 mps 742 mmHg 86%
    04:00 +2°C° 0 mm 3 mps 743 mmHg 85%
    05:00 +2°C° 0 mm 3 mps 743 mmHg 86%
    06:00 +2°C° 0 mm 3 mps 743 mmHg 86%
    07:00 +2°C° 0 mm 3 mps 743 mmHg 87%
    08:00 +3°C° 0 mm 4 mps 744 mmHg 82%
    09:00 +4°C° 0 mm 4 mps 744 mmHg 76%
    10:00 +5°C° 0 mm 5 mps 744 mmHg 71%
    11:00 +5°C° 0 mm 5 mps 744 mmHg 68%
    12:00 +6°C° 0 mm 5 mps 745 mmHg 66%
    13:00 +6°C° 0 mm 5 mps 745 mmHg 63%
    14:00 +6°C° 0.1 mm 5 mps 745 mmHg 64%
    15:00 +6°C° 0.1 mm 4 mps 745 mmHg 64%
    16:00 +6°C° 0.1 mm 4 mps 745 mmHg 65%
    17:00 +5°C° 0.1 mm 3 mps 745 mmHg 68%
    18:00 +5°C° 0.1 mm 3 mps 746 mmHg 71%
    19:00 +5°C° 0.1 mm 2 mps 746 mmHg 75%
    20:00 +5°C° 0.1 mm 2 mps 746 mmHg 77%
    21:00 +5°C° 0.1 mm 2 mps 747 mmHg 79%
    22:00 +5°C° 0.1 mm 2 mps 747 mmHg 81%
    23:00 +5°C° 0 mm 2 mps 747 mmHg 82%

    Tomorrow, 21 February, Thursday

    Time Temperature Precipitation Wind Pressure Humidity
    00:00 +4°C° 0 mm 2 mps 747 mmHg 83%
    01:00 +4°C° 0 mm 2 mps 747 mmHg 83%
    02:00 +4°C° 0 mm 2 mps 747 mmHg 83%
    03:00 +4°C° 0 mm 2 mps 747 mmHg 83%
    04:00 +3°C° 0 mm 2 mps 747 mmHg 82%
    05:00 +3°C° 0 mm 2 mps 747 mmHg 82%
    06:00 +3°C° 0 mm 2 mps 747 mmHg 82%
    07:00 +3°C° 0 mm 2 mps 747 mmHg 82%
    08:00 +4°C° 0 mm 2 mps 747 mmHg 78%
    09:00 +4°C° 0 mm 3 mps 747 mmHg 74%
    10:00 +5°C° 0 mm 3 mps 747 mmHg 70%
    11:00 +5°C° 0.4 mm 3 mps 746 mmHg 70%
    12:00 +6°C° 0.4 mm 4 mps 746 mmHg 70%
    13:00 +6°C° 0.4 mm 4 mps 746 mmHg 70%
    14:00 +6°C° 0.3 mm 4 mps 746 mmHg 72%
    15:00 +6°C° 0.3 mm 4 mps 745 mmHg 74%
    16:00 +5°C° 0.3 mm 3 mps 745 mmHg 76%
    17:00 +5°C° 0.3 mm 4 mps 745 mmHg 78%
    18:00 +5°C° 0.3 mm 4 mps 745 mmHg 79%
    19:00 +5°C° 0.3 mm 4 mps 745 mmHg 81%
    20:00 +5°C° 0.5 mm 4 mps 745 mmHg 84%
    21:00 +5°C° 0.5 mm 5 mps 745 mmHg 86%
    22:00 +6°C° 0.5 mm 5 mps 745 mmHg 89%
    23:00 +6°C° 0.5 mm 5 mps 745 mmHg 89%

    Day after tomorrow, 22 February, Friday

    Time Temperature Precipitation Wind Pressure Humidity
    00:00 +5°C° 0.5 mm 6 mps 745 mmHg 89%
    01:00 +5°C° 0.5 mm 6 mps 745 mmHg 90%
    02:00 +5°C° 0.2 mm 6 mps 745 mmHg 89%
    03:00 +5°C° 0.2 mm 6 mps 745 mmHg 87%
    04:00 +5°C° 0.2 mm 6 mps 745 mmHg 86%
    05:00 +4°C° 0.3 mm 7 mps 745 mmHg 86%
    06:00 +4°C° 0.3 mm 7 mps 746 mmHg 86%
    07:00 +4°C° 0.3 mm 7 mps 747 mmHg 85%
    08:00 +2°C° 0.1 mm 6 mps 748 mmHg 81%
    09:00 +1°C° 0.1 mm 6 mps 749 mmHg 77%
    10:00 -1°C° 0.1 mm 6 mps 750 mmHg 73%
    11:00 0°C° 0 mm 5 mps 750 mmHg 67%
    12:00 +1°C° 0 mm 5 mps 751 mmHg 60%
    13:00 +1°C° 0 mm 5 mps 752 mmHg 53%
    14:00 +1°C° 0 mm 5 mps 753 mmHg 52%
    15:00 0°C° 0 mm 5 mps 753 mmHg 51%
    16:00 0°C° 0 mm 5 mps 754 mmHg 50%
    17:00 -1°C° 0 mm 5 mps 754 mmHg 52%
    18:00 -2°C° 0 mm 4 mps 755 mmHg 54%
    19:00 -3°C° 0 mm 4 mps 756 mmHg 56%
    20:00 -3°C° 0 mm 4 mps 756 mmHg 55%
    21:00 -4°C° 0 mm 4 mps 757 mmHg 54%
    22:00 -4°C° 0 mm 4 mps 757 mmHg 53%
    23:00 -4°C° 0 mm 3 mps 758 mmHg 51%

    23 February, Saturday

    Time Temperature Precipitation Wind Pressure Humidity
    00:00 -4°C° 0 mm 3 mps 758 mmHg 49%
    01:00 -4°C° 0 mm 3 mps 759 mmHg 47%
    02:00 -4°C° 0 mm 3 mps 759 mmHg 45%
    03:00 -4°C° 0 mm 2 mps 759 mmHg 43%
    04:00 -4°C° 0 mm 2 mps 759 mmHg 41%
    05:00 -4°C° 0 mm 2 mps 759 mmHg 41%
    06:00 -4°C° 0 mm 2 mps 759 mmHg 40%
    07:00 -2°C° 0 mm 1 mps 759 mmHg 39%
    08:00 -1°C° 0 mm 1 mps 759 mmHg 36%
    09:00 0°C° 0 mm 1 mps 759 mmHg 33%
    10:00 0°C° 0 mm 1 mps 760 mmHg 30%
    11:00 +1°C° 0 mm 1 mps 759 mmHg 28%
    12:00 +2°C° 0 mm 1 mps 759 mmHg 26%
    13:00 +3°C° 0 mm 1 mps 759 mmHg 24%
    14:00 +3°C° 0 mm 1 mps 759 mmHg 25%
    15:00 +1°C° 0 mm 0 mps 758 mmHg 27%
    16:00 +1°C° 0 mm 0 mps 758 mmHg 28%
    17:00 0°C° 0 mm 0 mps 758 mmHg 31%
    18:00 0°C° 0 mm 0 mps 758 mmHg 34%
    19:00 -1°C° 0 mm 0 mps 758 mmHg 36%
    20:00 0°C° 0 mm 1 mps 758 mmHg 37%
    21:00 0°C° 0 mm 1 mps 758 mmHg 37%
    22:00 -1°C° 0 mm 1 mps 758 mmHg 37%
    23:00 -1°C° 0 mm 1 mps 758 mmHg 37%

    24 February, Sunday

    Time Temperature Precipitation Wind Pressure Humidity
    00:00 -1°C° 0 mm 1 mps 758 mmHg 37%
    01:00 -1°C° 0 mm 1 mps 757 mmHg 37%
    02:00 0°C° 0 mm 1 mps 757 mmHg 36%
    03:00 0°C° 0 mm 1 mps 757 mmHg 36%
    04:00 0°C° 0 mm 1 mps 757 mmHg 35%
    05:00 0°C° 0 mm 1 mps 756 mmHg 34%
    06:00 0°C° 0 mm 1 mps 756 mmHg 33%
    07:00 +1°C° 0 mm 1 mps 756 mmHg 32%
    08:00 +2°C° 0 mm 1 mps 756 mmHg 31%
    09:00 +3°C° 0 mm 1 mps 756 mmHg 30%
    10:00 +3°C° 0 mm 2 mps 755 mmHg 28%
    11:00 +4°C° 0 mm 2 mps 755 mmHg 29%
    12:00 +5°C° 0 mm 2 mps 755 mmHg 30%
    13:00 +5°C° 0 mm 3 mps 754 mmHg 31%
    14:00 +6°C° 0 mm 2 mps 754 mmHg 36%
    15:00 +6°C° 0 mm 2 mps 754 mmHg 40%
    16:00 +5°C° 0 mm 2 mps 753 mmHg 44%
    17:00 +4°C° 0 mm 2 mps 753 mmHg 49%
    18:00 +4°C° 0 mm 1 mps 753 mmHg 53%
    19:00 +3°C° 0 mm 1 mps 753 mmHg 57%
    20:00 +3°C° 0 mm 1 mps 753 mmHg 59%
    21:00 +2°C° 0 mm 1 mps 753 mmHg 60%
    22:00 +2°C° 0 mm 1 mps 753 mmHg 62%
    23:00 +2°C° 0 mm 1 mps 753 mmHg 62%

    25 February, Monday

    Time Temperature Precipitation Wind Pressure Humidity
    00:00 +2°C° 0 mm 1 mps 753 mmHg 63%
    01:00 +2°C° 0 mm 1 mps 753 mmHg 63%
    02:00 +2°C° 0 mm 1 mps 753 mmHg 64%
    03:00 +2°C° 0 mm 1 mps 753 mmHg 64%
    04:00 +2°C° 0 mm 1 mps 753 mmHg 65%
    05:00 +2°C° 0 mm 1 mps 753 mmHg 67%
    06:00 +2°C° 0 mm 1 mps 753 mmHg 68%
    07:00 +2°C° 0 mm 1 mps 753 mmHg 70%
    08:00 +2°C° 0 mm 2 mps 753 mmHg 67%
    09:00 +3°C° 0 mm 2 mps 753 mmHg 64%
    10:00 +5°C° 0 mm 2 mps 753 mmHg 60%
    11:00 +6°C° 0 mm 2 mps 753 mmHg 58%
    12:00 +7°C° 0 mm 3 mps 753 mmHg 56%
    13:00 +8°C° 0 mm 3 mps 752 mmHg 54%
    14:00 +8°C° 0 mm 3 mps 752 mmHg 56%
    15:00 +8°C° 0 mm 3 mps 752 mmHg 59%
    16:00 +8°C° 0 mm 3 mps 752 mmHg 61%
    17:00 +7°C° 0 mm 3 mps 752 mmHg 69%
    18:00 +5°C° 0 mm 3 mps 753 mmHg 76%
    19:00 +4°C° 0 mm 2 mps 753 mmHg 84%
    20:00 +4°C° 0 mm 2 mps 753 mmHg 87%
    21:00 +3°C° 0 mm 2 mps 753 mmHg 90%
    22:00 +3°C° 0 mm 2 mps 753 mmHg 94%
    23:00 +3°C° 0 mm 2 mps 753 mmHg 94%
    Show more